sat.trackr.live / text

‹ back to catalog

STARLINK-3230

NORAD 50845 · 2022-001AU

PAYLOAD ACTIVE UNKNOWN

§ Identity

Operator
Country
US
Launch date
2022-01-06
Launch site
AFETR
Launch vehicle
Mass (kg)
RCS (m²)

Purposes: comms

External: N2YO · Heavens-Above · Gunter

§ Orbital elements

Epoch: 2026-05-25T03:36:17.889984Z

Period
95.44 min
Inclination
53.2131°
Eccentricity
0.0000984
Mean motion
15.08835444 rev/d
Perigee alt
539.1 km
Apogee alt
540.4 km
Semi-major
6,917.9 km
B*
3.6704e-6
RAAN
195.8749°
Arg perigee
77.8457°
Mean anomaly
282.2645°
Rev number
24,181

§ Raw data

STARLINK-32301 50845U 22001AU  26145.15020706 -.00000229  00000+0  36704-5 0  99942 50845  53.2131 195.8749 0000984  77.8457 282.2645 15.08835444241818

JSON: /api/v1/satellites/50845 · /tle

For live sub-satellite position, see the globe view (requires WebGL).

§ Visibility from observer

Set your observer location to see the next 7 days of passes ≥ 10°. The values pass through the URL so the page stays shareable.

No JS? Fill the form by hand. The geolocation button needs JavaScript.